Location: Indian Hills
(32.9760°N, 85.9450°W)
Time: 04:33:20
(UTC+00:00)

Cosmos 1900 - Pass Details

Date: 09 December 2019
Orbit: 692 x 730 km, 66.1° (Epoch: 28 January)

Event Time Altitude Azimuth Distance (km) Brightness Sun altitude
Rises 00:11:06 0° 335° (NNW) 3,069 7.8 -19.2°
Reaches altitude 10° 00:13:27 10° 337° (NNW) 2,148 6.9 -19.7°
Maximum altitude 00:18:20 76° 63° (ENE) 714 4.1 -20.7°
Enters shadow 00:23:08 10° 149° (SSE) 2,118 6.6 -21.7°
